Weather History for Dayton Wright, OH

Change the Weather History Date:

Wednesday, November 6, 2013

  Actual Average (KFFO) Record (KFFO)
Temperature  
Mean Temperature 54 °F -  
Max Temperature 63 °F 53 °F 75 °F (2008)
Min Temperature 45 °F 35 °F 26 °F (2001)
Degree Days  
Heating Degree Days 10    
Growing Degree Days 4 (Base 50)    
Moisture  
Dew Point 49 °F    
Average Humidity 79    
Maximum Humidity 94    
Minimum Humidity 52    
Precipitation  
Precipitation 0.42 in - - ()
Sea Level Pressure  
Sea Level Pressure 30.04 in    
Wind  
Wind Speed 10 mph (SW)    
Max Wind Speed 17 mph    
Max Gust Speed 25 mph    
Visibility 8 miles    
Events Rain    
Averages and records for this station are not official NWS values.
T = Trace of Precipitation, MM = Missing Value Source: NWS Daily Summary

Daily Weather History Graph

Daily Weather History Graph

Search for Another Location

Airport:

Trip Planner

Search our weather history database for the weather conditions in past years. The results will help you decide how hot, cold, wet, or windy it might be!

Date:

Astronomy

Nov. 06, 2013 Rise Set
Actual Time 7:11 AM EST 5:29 PM EST
Civil Twilight 6:42 AM EST 5:57 PM EST
Nautical Twilight 6:10 AM EST 6:29 PM EST
Astronomical Twilight 5:39 AM EST 7:01 PM EST
Moon 10:24 AM EST (11/6) 8:33 PM EST (11/6)
Length of Visible Light 11h 14m
Length of Day
10h 18m
Waxing Crescent, 13% of the Moon is Illuminated
Nov 6
Waxing Crescent
Nov 10
First Quarter
Nov 17
Full
Nov 25
Last Quarter
Dec 2
New

Hourly Weather History & Observations

Time (EST) Temp. Windchill Dew Point Humidity Pressure Visibility Wind Dir Wind Speed Gust Speed Precip Events Conditions
12:53 AM 50.0 °F - 36.0 °F 59% 30.21 in 10.0 mi South 9.2 mph - N/A   Clear
1:53 AM 53.1 °F - 36.0 °F 52% 30.18 in 10.0 mi South 9.2 mph - N/A   Clear
2:53 AM 50.0 °F - 37.0 °F 61% 30.18 in 10.0 mi South 9.2 mph - N/A   Partly Cloudy
3:53 AM 52.0 °F - 37.0 °F 57% 30.17 in 10.0 mi SSW 8.1 mph - N/A   Scattered Clouds
4:53 AM 52.0 °F - 39.0 °F 61% 30.15 in 10.0 mi SSW 8.1 mph - N/A   Partly Cloudy
5:53 AM 52.0 °F - 39.0 °F 61% 30.14 in 10.0 mi South 9.2 mph - N/A   Clear
6:53 AM 52.0 °F - 39.0 °F 61% 30.12 in 10.0 mi South 8.1 mph - N/A   Clear
7:53 AM 54.0 °F - 39.0 °F 57% 30.11 in 10.0 mi South 9.2 mph - N/A   Overcast
8:53 AM 57.0 °F - 39.9 °F 53% 30.11 in 10.0 mi South 12.7 mph - N/A   Mostly Cloudy
9:53 AM 57.9 °F - 43.0 °F 58% 30.10 in 10.0 mi SSW 10.4 mph - N/A   Overcast
10:53 AM 60.1 °F - 48.0 °F 64% 30.08 in 10.0 mi South 16.1 mph 24.2 mph 0.00 in   Overcast
11:53 AM 63.0 °F - 51.1 °F 65% 30.04 in 10.0 mi South 17.3 mph 25.3 mph N/A   Partly Cloudy
12:53 PM 62.1 °F - 52.0 °F 70% 30.03 in 8.0 mi SW 16.1 mph 21.9 mph 0.01 in Rain Rain
1:53 PM 61.0 °F - 55.0 °F 81% 30.01 in 9.0 mi SSW 10.4 mph - 0.02 in Rain Light Rain
2:53 PM 60.1 °F - 55.9 °F 86% 30.00 in 6.0 mi SSW 11.5 mph - 0.04 in Rain Light Rain
3:53 PM 59.0 °F - 57.0 °F 93% 29.98 in 6.0 mi SSW 10.4 mph - 0.04 in Rain Light Rain
4:03 PM 59.0 °F - 57.2 °F 94% 29.98 in 5.0 mi SSW 10.4 mph - 0.00 in Rain Light Rain
4:13 PM 59.0 °F - 57.2 °F 94% 29.98 in 6.0 mi SSW 9.2 mph - 0.01 in Rain Light Rain
4:37 PM 60.8 °F - 57.2 °F 88% 29.99 in 4.0 mi SSW 11.5 mph - 0.03 in Rain Light Rain
4:53 PM 60.1 °F - 57.0 °F 90% 29.98 in 5.0 mi SW 9.2 mph - 0.04 in Rain Light Rain
5:32 PM 60.8 °F - 57.2 °F 88% 29.98 in 6.0 mi SSW 9.2 mph - 0.04 in Rain Light Rain
5:53 PM 60.1 °F - 57.9 °F 93% 29.98 in 9.0 mi SSW 11.5 mph - 0.06 in Rain Light Rain
6:12 PM 60.8 °F - 57.2 °F 88% 29.99 in 4.0 mi SW 8.1 mph - 0.00 in   Overcast
6:53 PM 60.1 °F - 57.9 °F 93% 29.98 in 9.0 mi SW 12.7 mph - 0.00 in   Overcast
7:45 PM 59.0 °F - 55.4 °F 88% 29.98 in 10.0 mi West 8.1 mph - 0.00 in   Overcast
7:53 PM 57.9 °F - 55.9 °F 93% 29.97 in 10.0 mi West 8.1 mph - 0.00 in   Overcast
8:05 PM 57.2 °F - 55.4 °F 94% 29.98 in 10.0 mi West 6.9 mph - N/A   Overcast
8:12 PM 57.2 °F - 55.4 °F 94% 29.98 in 10.0 mi WSW 8.1 mph - N/A   Overcast
8:53 PM 57.0 °F - 55.0 °F 93% 29.98 in 10.0 mi West 8.1 mph - 0.01 in Rain Light Rain
9:43 PM 55.4 °F - 53.6 °F 94% 29.99 in 6.0 mi West 5.8 mph - 0.05 in Rain Light Rain
9:50 PM 55.4 °F - 53.6 °F 94% 29.99 in 6.0 mi West 6.9 mph - 0.06 in Rain Light Rain
9:53 PM 55.9 °F - 54.0 °F 93% 30.00 in 6.0 mi WSW 6.9 mph - 0.06 in Rain Light Rain
10:14 PM 48.2 °F - 44.6 °F 87% 30.02 in 4.0 mi WNW 13.8 mph 24.2 mph 0.05 in Rain Rain
10:37 PM 46.4 °F 40.7 °F 42.8 °F 87% 30.03 in 9.0 mi NW 12.7 mph 25.3 mph 0.09 in Rain Light Rain
10:53 PM 46.9 °F - 43.0 °F 86% 30.04 in 10.0 mi NW 11.5 mph - 0.10 in Rain Light Rain
11:53 PM 45.0 °F 40.1 °F 42.1 °F 90% 30.05 in 10.0 mi NW 9.2 mph - 0.04 in   Overcast